Weather in Luzhnikovo

Russia / Tver Oblast     57°24′06″N   34°08′10″E
temp.,
°C
wind,
m/s
gust,
m/s
humid.,
%
clouds,
%
prec.,
mm/h
press.,
hPa
HPBL,
m
21 april, wed
wed2100:00+4ene2796100 0.3 1015829
03:00+3ene3597100 0.9 1012737
06:00+3ne3697100 0.8 1009513
09:00+2nne2499100 1.9 1006290
12:00+2nnw1399100 0.8 1005216
15:00+3w2697100 1.0 1005532
18:00+3w389285 0.1 1006656
21:00+2sw24955 0.1 100767
22 april, thu
thu2200:00+1s299480 0.0 1008175
03:00+2ssw310945 0.0 1009226
06:00+3ssw3128997 0.0 1009289
09:00+8ssw4117462 0.0 1009534
12:00+12ssw58616 0.9 10101193
15:00+13ssw475059 1.2 10101920
18:00+12s48605 0.0 1010979
21:00+9sse51278100 0.3 1010622
23 april, fri
fri2300:00+8sse412885 0.2 1010503
03:00+6sse2697100 0.2 1010172
06:00+6sse31194100 0.5 1009485
09:00+4wnw3795100 1.4 1012528
12:00+6ssw248296 0.3 1013612
15:00+9sw3464100 0.3 10131254
18:00+9sse2359100 0.0 10121310
21:00+6se2391100 0.4 1012102
24 april, sat
sat2400:00+5sse1194100 0.9 101135
03:00+4w1393100 2.3 1009551
06:00+3nw3897100 2.9 1008501
09:00+3wnw2697100 4.3 1008433
12:00+4w3693100 1.5 1008593
15:00+6wnw2369100 2.0 10081030
18:00+6sw1274100 0.7 1007369
21:00+3sw2287100 1.2 100845
25 april, sun
sun2500:00+1sw27915 0.0 1008151
03:00−1sw27965 0.0 1008169
06:000wsw379599 0.0 1009437
09:00+2wsw3574100 0.0 1009954
12:00+4sw3565100 0.0 10101316
15:00+7wsw364549 0.0 10101817
18:00+7sw235380 0.2 1011848
21:00+1ssw22795 0.4 101217